Location: Walton
(43.6794°N, 81.3017°W)
Time: 03:47:44
(UTC+00:00)

USA 215 - Visible Passes

Search period start: 17 March 2026 00:00
Search period end: 27 March 2026 00:00
Orbit: 1098 x 1109 km, 123.0° (Epoch: 10 January)

Date Brightness Start Highest point End Pass type
(mag) Time Alt. Az. Time Alt. Az. Time Alt. Az.
17 Mar 4.2 07:51:47 10° ENE 07:56:47 39° ESE 07:56:47 39° ESE visible
17 Mar 3.4 09:34:39 10° NE 09:41:09 63° NNW 09:44:08 34° W visible
18 Mar 5.3 07:10:01 10° ENE 07:12:25 18° E 07:12:25 18° E visible
18 Mar 3.2 08:51:50 10° NE 08:58:27 79° SE 08:59:46 59° SSW visible
18 Mar 3.9 10:35:03 10° NE 10:41:09 42° NNW 10:47:08 10° W visible
19 Mar 3.9 08:09:17 10° ENE 08:15:26 43° SE 08:15:26 43° SE visible
19 Mar 3.4 09:52:11 10° NE 09:58:40 63° NNW 10:02:48 24° WSW visible
20 Mar 5.0 07:27:31 10° ENE 07:31:06 20° ESE 07:31:06 20° ESE visible
20 Mar 3.2 09:09:21 10° NE 09:15:58 79° SE 09:18:28 42° SW visible
20 Mar 3.9 10:52:34 10° NE 10:58:39 42° NNW 11:04:44 10° W visible
21 Mar 3.9 08:26:49 10° ENE 08:33:02 43° SE 08:34:10 40° SSE visible
21 Mar 3.4 10:09:42 10° NE 10:16:11 63° NNW 10:21:31 16° WSW visible
22 Mar 4.9 07:45:01 10° ENE 07:49:51 21° ESE 07:49:52 21° ESE visible
22 Mar 3.3 09:26:52 10° NE 09:33:29 80° SE 09:37:13 28° SW visible
23 Mar 4.0 08:44:19 10° ENE 08:50:33 43° SE 08:52:58 32° S visible
23 Mar 3.4 10:27:13 10° NE 10:33:42 63° NNW 10:40:10 10° WSW visible
24 Mar 4.9 08:02:31 10° ENE 08:07:22 22° ESE 08:08:43 20° SE visible
24 Mar 3.3 09:44:23 10° NE 09:51:00 80° SE 09:56:05 18° SW visible
25 Mar 4.1 09:01:50 10° ENE 09:08:04 44° SE 09:11:51 23° S visible
25 Mar 3.5 10:44:44 10° NE 10:51:13 62° NNW 10:57:40 10° WSW visible
26 Mar 5.0 08:20:01 10° ENE 08:24:54 22° ESE 08:27:39 17° SSE visible
26 Mar 3.4 10:01:54 10° NE 10:08:31 81° SE 10:15:01 10° SW visible
